Regional Weather Roundup
Issued by NWS Goodland, KS

Home | Current Version | Previous Version | Text Only | Print | Product List | Glossary On
Versions: 1 2 3 4 5 6 7 8 9 10 11 12 13 14 15 16 17 18 19 20 21 22 23 24 25 26 27 28 29 30 31 32 33 34 35 36 37 38 39 40 41 42 43 44 45 46 47 48 49 50
000
ASUS43 KGLD 250308
RWRGLD

GOODLAND FORECAST AREA HOURLY WEATHER ROUNDUP
NATIONAL WEATHER SERVICE GOODLAND KS
900 PM MDT TUE APR 24 2018

...OFFICIAL OBSERVATIONS...

CITY           SKY/WX    TMP DP  RH WIND       PRES   REMARKS
GOODLAND KS    CLOUDY    38  35  89 N12       30.38R
HILL CITY KS   CLOUDY    43  38  82 N17       30.35R
IMPERIAL NEB   CLOUDY    38  32  79 NW16      30.40R
MCCOOK NEB     CLOUDY    40  35  83 N14       30.37R
AKRON CO       CLOUDY    36  30  79 N7        30.41R
BURLINGTON CO  CLOUDY    38  33  82 N10       30.40R
LIMON CO       CLOUDY    35  31  85 N7        30.40R
$$

...UNOFFICIAL OBSERVATIONS...

CITY           SKY/WX    TMP DP  RH WIND       PRES   REMARKS
COLBY KS       CLOUDY    37  36  93 N10G16    30.39R
NORTON KS      CLOUDY    41  37  87 NW17G23   30.34
SHARON SPRINGS   N/A     39  37  91 N13         N/A
KIT CARSON CO    N/A     37  32  82 MISG        N/A
YUMA CO        CLOUDY    36  30  80 N12       30.41R
$$




USA.gov is the U.S. government's official web portal to all federal, state and local government web resources and services.